カタログに戻る

METEOR 1-16

運用中気象PO
NORAD 7209·PAYLOAD·🇷🇺 Russia

打ち上げ Mar 5, 1974 から Plesetsk Cosmodrome

Loading…

次のパス (今後24時間)

TLE

最新Source: Space-Track

元期: Sep 14, 2026, 13:16 UTC

1 07209U 74011A   26257.55316956  .00000048  00000-0  18274-4 0  9991
2 07209  81.2260 301.8667 0039326 146.1019 214.2680 14.14563281707872

AllMySatでMETEOR 1-16をリアルタイム追跡

Download on the App Store